Regional Weather Roundup
Issued by NWS Northern Indiana

Home | Current Version | Previous Version | Graphics & Text | Print | Product List | Glossary On
Versions: 1 2 3 4 5 6 7 8 9 10 11 12 13 14 15 16 17 18 19 20 21 22 23 24 25 26 27 28 29 30 31 32 33 34 35 36 37 38 39 40 41 42 43 44 45 46 47 48 49 50
000
ASUS43 KIWX 272100
RWRIWX

KIWX WEATHER ROUNDUP
NATIONAL WEATHER SERVICE NORTHERN INDIANA
500 PM EDT WED JUL 27 2016

NOTE: "FAIR" INDICATES FEW OR NO CLOUDS BELOW 12,000 FEET WITH NO
SIGNIFICANT WEATHER AND/OR OBSTRUCTIONS TO VISIBILITY.

* THESE STATIONS ARE NOT UNDER NWS QUALITY CONTROL. THEY ALSO MAY NOT
  REPORT WEATHER SUCH AS PRECIPITATION OR FOG.

INZ001>027-272200-
NORTHERN INDIANA

CITY           SKY/WX    TMP DP  RH WIND       PRES   REMARKS
GARY*          MOSUNNY   88  68  51 SE5       29.94F
KNOX*          SUNNY     84  50  30 CALM      29.95F
SOUTH BEND     MOSUNNY   85  66  53 NW6       29.96F
GOSHEN         MOSUNNY   87  59  38 SW8       29.96F
MONTICELLO*    SUNNY     85  62  46 CALM      29.96F
ANGOLA*          N/A     88  64  45 VRB3      29.97F
FORT WAYNE     MOSUNNY   88  58  36 NW6       29.96F

$$
INZ028>050-272200-
CENTRAL INDIANA

CITY           SKY/WX    TMP DP  RH WIND       PRES   REMARKS
LAFAYETTE      MOSUNNY   86  65  49 VRB3      29.95F
KOKOMO*        MOSUNNY   90  64  43 N6        29.96F
MUNCIE*        SUNNY     89  62  40 N5        29.97F
INDIANAPOLIS   PTSUNNY   87  64  46 CALM      29.96F

$$
MIZ043>046-050>051-056>058-064>065-071>073-077>080-272200-
SOUTHWEST LOWER MICHIGAN

CITY           SKY/WX    TMP DP  RH WIND       PRES   REMARKS
BATTLE CREEK   SUNNY     85  66  53 SW7       29.97F
BENTON HARBOR  SUNNY     83  64  52 VRB3      29.96F
COLDWATER*     SUNNY     86  61  43 W6        29.96F
HILLSDALE*     MOSUNNY   86  64  48 W5        29.97F
HOLLAND        CLOUDY    83  67  58 W6        29.97F
GRAND RAPIDS   PTSUNNY   86  66  51 W12       29.96F
KALAMAZOO      MOSUNNY   84  64  50 W7        29.96F
STURGIS*       SUNNY     86  58  39 CALM      29.96F
THREE RIVERS*  FAIR      87  60  40 NW5       29.96F

$$
OHZ001>008-015>018-024>025-272200-
NORTHWEST OHIO

CITY           SKY/WX    TMP DP  RH WIND       PRES   REMARKS
DEFIANCE       MOSUNNY   90  61  37 S5        29.94F
FINDLAY        MOSUNNY   90  56  31 VRB5      29.94F
TOLEDO EXPRESS SUNNY     88  62  41 VRB6      29.95F
TOLEDO METCALF CLOUDY    89  59  36 SW6       29.95F
LIMA           MOSUNNY   88  65  46 NE8       29.96F

$$
AND FOR LAKE MICHIGAN COASTAL AND OPEN LAKE BUOY OBSERVATIONS

STATION/POSITION TEMP    WIND        PRES    VSBY  WAVE
                 AIR SEA DIR/SP/G                  HT/PER
                 (F)     (DEG/KT/KT) (MB)    (MI)  (FT/S)
CALUMET HARBOR    79      50/  8/ 10 1013.8F
MICHIGAN CITY     78      20/  6/  6   N/A
BURNS HARBOR      80      80/ 10/ 11 1014.9F
SAINT JOSEPH      82     290/  4/  4 1015.6F
SOUTH LAKE BUOY   77 77  160/  6/  6 1014.2          0
4 MI NW BRIDGMAN  78     330/  4/  4 1014.8F         0
MICHIGAN CITY     79 78   50/  6/  6   N/A           0

$$
&&



USA.gov is the U.S. government's official web portal to all federal, state and local government web resources and services.